Other Public Products
Issued by NWS Charleston, SC

Current Version | Previous Version | Graphics & Text | Print | Product List | Glossary On
Versions: 1 2 3 4 5 6 7 8 9 10 11 12 13 14 15 16 17 18 19 20 21 22 23 24 25 26 27 28 29 30 31 32 33 34 35 36 37 38 39 40 41 42 43 44 45 46 47 48 49 50
579
FPUS82 KCHS 200227
OPUCHS

TEST...KCHS/KSAV Gateway Observations...TEST
National Weather Service Charleston SC
900 PM EST FRI JAN 19 2018

NOTE: "fair" indicates few or no clouds below 12,000 feet with no
significant weather and/or obstructions to visibility.

SCZ050-WAZ558-NCZ071-TXZ119-213-PAZ071-DCZ001-FLZ074-172-MI076-
NYZ176-178-MAZ016-IL014-TNZ027-NJZ106-GAZ044-MD014-200300-

...Gateway Observations for Charleston International...

CITY           SKY/WX    TMP DP  RH WIND       PRES   REMARKS
Chas Airport   FAIR      40  29  64 SW6       30.24R WCI  36
Seattle        CLOUDY    46  36  68 S10       29.89R
Charlotte      FAIR      43  22  43 S6        30.16S
Dallas DFW     CLOUDY    54  42  64 S16       30.04R
Dallas Love    CLOUDY    52  43  71 S15       30.06R
Philladelphia  FAIR      38  20  48 SW7       30.03S WCI  33
Wash National  FAIR      38  18  44 S7        30.05S WCI  33
Baltimore      FAIR      29  19  66 CALM      30.03F
Miami          CLOUDY    66  52  60 N5        30.23R
Detroit        CLOUDY    35  23  61 SW22G32   29.80F WCI  23
Newark         FAIR      35  19  52 SW10      29.99S WCI  27
Laguardia      FAIR      39  19  44 SW9       29.98F WCI  33
J F K          FAIR      35  22  58 SW7       30.00S WCI  29
Boston Logan   CLOUDY    32  21  64 SW10      29.95S WCI  24
Ft. Lauderdale CLOUDY    64  54  69 NE7       30.23R
Chicago O`Hare CLOUDY    40  28  62 SW20G31   29.71F WCI  30
Chicago Midway CLOUDY    39  29  67 SW21G32   29.75S WCI  29
Houston Bush   CLOUDY    51  50  96 SE10      30.15R FOG
Houston Hobby  CLOUDY    50  50 100 E8        30.14S
Nashville      CLOUDY    43  23  45 S10       30.17S
Atlanta        FAIR      42  12  29 W6        30.23R

$$

GAZ044-118-TXZ119-213-NCZ071-DCZ001-MDZ014-506-PAZ021-071-NJZ106-
NYZ176-178-MAZ106-OHZ011-021-055-MIZ076-KYZ091-ILZ014-INZ047-
MNZ060-ONZ431-200300-

...Gateway Observations for Savannah International...

CITY           SKY/WX    TMP DP  RH WIND       PRES   REMARKS
Savannah Arpt  FAIR      42  23  46 CALM      30.26R
Atlanta        FAIR      42  12  29 W6        30.23R
Charlotte      FAIR      43  22  43 S6        30.16S
Dallas DFW     CLOUDY    54  42  64 S16       30.04R
Houston Bush   CLOUDY    51  50  96 SE10      30.15R FOG
Wash National  FAIR      38  18  44 S7        30.05S WCI  33
Wash Dulles    FAIR      33  15  47 CALM      30.04R
Baltimore      FAIR      29  19  66 CALM      30.03F
Philadelphia   FAIR      38  20  48 SW7       30.03S WCI  33
Newark         FAIR      35  19  52 SW10      29.99S WCI  27
Laguardia      FAIR      39  19  44 SW9       29.98F WCI  33
J F K          FAIR      35  22  58 SW7       30.00S WCI  29
Boston         CLOUDY    32  21  64 SW10      29.95S WCI  24
Pittsburg      FAIR      34  18  52 S7        29.98F WCI  28
Akron          FAIR      34  18  52 SW17      29.94F WCI  23
Cleveland      MOCLDY    37  20  50 S18       29.92S WCI  27
Cincinnati     MOCLDY    36  21  54 SW15G22   30.03F WCI  27
Columbus       FAIR      31  18  58 S12       30.01F WCI  22
Detroit        CLOUDY    35  23  61 SW22G32   29.80F WCI  23
Chicago O`Hare CLOUDY    40  28  62 SW20G31   29.71F WCI  30
Minneapolis    MOCLDY    38  33  82 S3        29.60R
Indianapolis   FAIR      35  23  61 S17       29.97S WCI  25
Toronto Canada MOCLDY    34  21  60 SW21G26   29.70F WCI  22

$$




USA.gov is the U.S. government's official web portal to all federal, state and local government web resources and services.